Radiation Dose measured at exhaust stack monitor of Fukushima Daiichi Nuclear Power Station
Date,Time,Unit 5 6 shared exhaust cylinders,Wind Direction,Wind Velocity(m/s)
2023/04/29,00:00,3.7,south,4.9
2023/04/29,00:10,3.8,south,6.1
2023/04/29,00:20,3.6,south,6.7
2023/04/29,00:30,3.6,south,5.6
2023/04/29,00:40,3.5,south-southwest,5.5
2023/04/29,00:50,3.7,south,6.8
2023/04/29,01:00,3.6,south-southwest,6.7
2023/04/29,01:10,3.6,south,5.3
2023/04/29,01:20,3.6,south,5.8
2023/04/29,01:30,3.6,south,6.3
2023/04/29,01:40,3.8,south,6.2
2023/04/29,01:50,3.7,south,4.6
2023/04/29,02:00,3.7,south-southwest,4.5
2023/04/29,02:10,3.7,south,6.2
2023/04/29,02:20,3.6,south,6.1
2023/04/29,02:30,3.6,south,5.8
2023/04/29,02:40,3.9,south,5.4
2023/04/29,02:50,3.6,south,6.0
2023/04/29,03:00,3.6,south,6.0
2023/04/29,03:10,3.7,south,6.4
2023/04/29,03:20,3.7,south,5.5
2023/04/29,03:30,3.7,south,5.7
2023/04/29,03:40,3.6,south,6.7
2023/04/29,03:50,3.5,south,6.5
2023/04/29,04:00,3.6,south,6.5
2023/04/29,04:10,3.6,south,6.9
2023/04/29,04:20,3.7,south,7.6
2023/04/29,04:30,3.6,south,9.0
2023/04/29,04:40,3.6,south,9.1
2023/04/29,04:50,3.8,south-southwest,7.4
2023/04/29,05:00,3.6,south-southwest,6.9
2023/04/29,05:10,3.7,south,5.4
2023/04/29,05:20,3.7,south,5.8
2023/04/29,05:30,3.7,south,5.9
2023/04/29,05:40,3.6,south,5.7
2023/04/29,05:50,3.7,south-southeast,5.7
2023/04/29,06:00,3.6,south,6.2
2023/04/29,06:10,3.7,south,5.9
2023/04/29,06:20,3.7,south,5.3
2023/04/29,06:30,3.6,south,6.2
2023/04/29,06:40,3.8,south,6.0
2023/04/29,06:50,3.5,south,4.4
2023/04/29,07:00,3.6,south-southeast,4.4
2023/04/29,07:10,3.7,south-southeast,3.9
2023/04/29,07:20,3.5,south-southeast,3.7
2023/04/29,07:30,3.8,south-southeast,5.1
2023/04/29,07:40,3.8,south-southeast,4.9
2023/04/29,07:50,3.6,south-southeast,6.6
2023/04/29,08:00,3.6,south-southeast,7.4
2023/04/29,08:10,3.7,south-southeast,7.9
2023/04/29,08:20,3.6,south,7.2
2023/04/29,08:30,3.6,south,8.1
2023/04/29,08:40,3.8,south-southeast,8.9
2023/04/29,08:50,3.6,south-southeast,10.8
2023/04/29,09:00,3.6,south-southeast,10.8
2023/04/29,09:10,3.5,south-southeast,10.2
2023/04/29,09:20,3.6,south-southeast,11.1
2023/04/29,09:30,3.6,south-southeast,12.2
2023/04/29,09:40,3.6,south-southeast,13.3
2023/04/29,09:50,3.6,south-southeast,12.4
2023/04/29,10:00,3.7,south-southeast,13.3
2023/04/29,10:10,3.6,south-southeast,14.1
2023/04/29,10:20,3.8,south-southeast,12.7
2023/04/29,10:30,3.6,south-southeast,13.0
2023/04/29,10:40,3.6,south-southeast,13.5
2023/04/29,10:50,3.6,south-southeast,14.4
2023/04/29,11:00,3.7,south-southeast,13.5
2023/04/29,11:10,3.8,south-southeast,13.6
2023/04/29,11:20,3.6,south-southeast,12.8
2023/04/29,11:30,3.7,south-southeast,13.6
2023/04/29,11:40,3.6,south-southeast,13.6
2023/04/29,11:50,3.6,south-southeast,15.2
2023/04/29,12:00,3.6,south-southeast,15.2
2023/04/29,12:10,3.7,south-southeast,14.1
2023/04/29,12:20,3.6,south-southeast,15.2
2023/04/29,12:30,3.6,south-southeast,16.9
2023/04/29,12:40,3.7,south-southeast,15.0
2023/04/29,12:50,3.6,south-southeast,16.6
2023/04/29,13:00,3.7,south-southeast,17.5
2023/04/29,13:10,3.7,south-southeast,13.8
2023/04/29,13:20,3.6,south-southeast,17.2
2023/04/29,13:30,3.6,south-southeast,18.6
2023/04/29,13:40,3.8,south,14.1
2023/04/29,13:50,3.5,south-southeast,15.5
2023/04/29,14:00,3.6,south-southeast,14.1
2023/04/29,14:10,3.6,south-southeast,14.4
2023/04/29,14:20,3.9,south,13.6
2023/04/29,14:30,3.7,south,12.2
2023/04/29,14:40,3.8,south,12.4
2023/04/29,14:50,3.7,south-southeast,12.0
2023/04/29,15:00,3.5,south-southeast,14.9
2023/04/29,15:10,3.6,south-southeast,14.6
2023/04/29,15:20,3.6,south-southeast,11.6
2023/04/29,15:30,3.9,south,11.6
2023/04/29,15:40,3.5,south-southeast,15.0
2023/04/29,15:50,3.7,south,13.0
2023/04/29,16:00,3.9,south-southeast,13.3
2023/04/29,16:10,3.6,south,11.6
2023/04/29,16:20,3.7,south,13.3
2023/04/29,16:30,3.7,south,14.6
2023/04/29,16:40,3.7,south,14.4
2023/04/29,16:50,3.9,south,16.0
2023/04/29,17:00,3.5,south,13.3
2023/04/29,17:10,3.8,south,14.1
2023/04/29,17:20,3.6,south,13.6
2023/04/29,17:30,3.7,south,9.9
2023/04/29,17:40,3.5,south-southeast,11.1
2023/04/29,17:50,3.6,south,10.5
2023/04/29,18:00,3.8,south,9.2
2023/04/29,18:10,3.7,south,11.0
2023/04/29,18:20,3.7,south,11.1
2023/04/29,18:30,3.6,south,10.6
2023/04/29,18:40,3.6,south,10.0
2023/04/29,18:50,3.6,south,10.8
2023/04/29,19:00,3.5,south,10.5
2023/04/29,19:10,3.8,south,8.8
2023/04/29,19:20,3.7,south,10.2
2023/04/29,19:30,3.6,south,11.4
2023/04/29,19:40,3.6,south-southeast,9.4
2023/04/29,19:50,3.7,south,9.4
2023/04/29,20:00,3.8,south-southeast,11.4
2023/04/29,20:10,3.6,south-southeast,10.0
2023/04/29,20:20,3.6,south-southeast,11.9
2023/04/29,20:30,3.8,south-southeast,11.9
2023/04/29,20:40,3.7,south-southeast,10.5
2023/04/29,20:50,3.8,south,12.8
2023/04/29,21:00,3.7,south,12.2
2023/04/29,21:10,3.7,south-southeast,10.8
2023/04/29,21:20,3.7,south,8.0
2023/04/29,21:30,3.6,south,10.5
2023/04/29,21:40,3.7,south,11.4
2023/04/29,21:50,3.5,south,10.2
2023/04/29,22:00,3.7,south-southeast,9.5
2023/04/29,22:10,3.5,south-southeast,9.4
2023/04/29,22:20,3.6,south,8.3
2023/04/29,22:30,3.7,south,8.8
2023/04/29,22:40,3.5,south,7.2
2023/04/29,22:50,3.7,south,7.0
2023/04/29,23:00,3.5,south,8.0
2023/04/29,23:10,3.7,south,7.7
2023/04/29,23:20,3.6,south,8.7
2023/04/29,23:30,3.8,south,7.1
2023/04/29,23:40,3.7,south,6.7
2023/04/29,23:50,3.7,south,7.7
